Tracking 27112 objects as of 26-Mar-2023
HD Live streaming from Space Station
objects crossing your sky now

INTELSAT 3-F3

Track INTELSAT 3-F3 now!
INTELSAT 3-F3 is classified as:


NORAD ID: 3674
Int'l Code: 1969-011A
Perigee: 39,892.4 km
Apogee: 41,566.3 km
Inclination: 12.6 °
Period: 1,695.5 minutes
Semi major axis: 47100 km
RCS: 0.4044 m2 (medium)
Launch date: February 6, 1969
Source: International Telecommunications Satellite Organization (ITSO)
Launch site: AIR FORCE EASTERN TEST RANGE (AFETR)
Your satellite tracking list
Your tracking list is empty




NASA's NSSDC Master Catalog

Two Line Element Set (TLE):
1  3674U 69011A   23085.21623194 -.00000199  00000-0  00000+0 0  9992
2  3674  12.5548 309.9493 0177694 341.1769 209.6194  0.84931193187509
Source of the keplerian elements: AFSPC